User: anonymous   Login
Location: L'Union
(43.6635°N, 1.4699°E)
Time: 21:16:38
(UTC+02:00)
Language:

SEEDS - Orbit

View from above orbital plane
View from above orbital plane
View from above satellite
View from above satellite

Ground track
Ground track

The orbit data is extracted from the following two-line orbital elements,

1 32791U 08021J   21294.42189139  .00000935  00000-0  98451-4 0  9996
2 32791  97.5849 274.2581 0011534 267.0371  92.9528 14.91588145731557
Epoch (UTC): 21 October 2021 10:07:31
Eccentricity: 0.0011534
inclination: 97.5849°
perigee height: 585 km
apogee height: 601 km
right ascension of ascending node: 274.2581°
argument of perigee: 267.0371°
revolutions per day: 14.91588145
mean anomaly at epoch: 92.9528°
orbit number at epoch: 73155

The dashed part of the orbit path shows where the satellite is in the earth's shadow,  

DLR